Katwijk aan Zee, Netherlands
Current Conditions -  °F | °C
As of 4:25 PM on Thursday 30 Oct 2014 (Local Time) from EHAM Reporting Station
Haze Haze  
Wind Chill: 59°   Ceiling: Unl
Heat Index: 59°   Visibility: 3mi
Dew Point: 57°   Wind: 8mph
Humidity: 94%   Direction: 170°S
Pressure: 30.12"   Gusts: NA
Location:  52.2°N, 4.4°E
Report Text: EHAM 301525Z 17007KT 5000 BR FEW008 15/14 Q1020 NOSIG
Loading
Personal Weather Stations






























Interactive Weather Map
Tropical Storm Tracking
New forecast layout! Learn more

10-Day Weather Forecast

Advertisements
Track Severe Weather on mobile